Time,TemperatureF,DewpointF,PressureIn,WindDirection,WindDirectionDegrees,WindSpeedMPH,WindSpeedGustMPH,Humidity,HourlyPrecipIn,Conditions,Clouds,dailyrainin,SoftwareType,DateUTC
2013-02-06 11:20:00,2.6,-2.4,29.71,WNW,303,0.0,44.0,79,0.00,,,0.00,Wunderground v.1.13,2013-02-06 20:20:00,
2013-02-06 11:25:00,2.8,-2.2,29.71,NW,304,0.0,44.0,79,0.00,,,0.00,Wunderground v.1.13,2013-02-06 20:25:00,
2013-02-06 11:35:00,3.2,-1.8,29.71,NW,304,0.0,44.0,79,0.00,,,0.00,Wunderground v.1.13,2013-02-06 20:35:00,
2013-02-06 11:40:00,3.4,-1.4,29.71,NW,304,0.0,44.0,80,0.00,,,0.00,Wunderground v.1.13,2013-02-06 20:40:00,
2013-02-06 11:45:00,3.5,-1.3,29.71,NW,304,0.0,44.0,80,0.00,,,0.00,Wunderground v.1.13,2013-02-06 20:45:00,
2013-02-06 11:55:00,3.7,-1.1,29.71,NW,304,0.0,44.0,80,0.00,,,0.00,Wunderground v.1.13,2013-02-06 20:55:00,
2013-02-06 12:00:00,3.7,-1.1,29.71,NW,304,0.0,44.0,80,0.00,,,0.00,Wunderground v.1.13,2013-02-06 21:00:00,
2013-02-06 12:10:00,3.9,-0.9,29.72,NW,304,0.0,44.0,80,0.00,,,0.00,Wunderground v.1.13,2013-02-06 21:10:00,
2013-02-06 12:15:00,3.9,-0.9,29.72,NW,304,0.0,44.0,80,0.00,,,0.00,Wunderground v.1.13,2013-02-06 21:15:00,
2013-02-06 12:25:00,3.9,-0.9,29.72,NW,304,0.0,44.0,80,0.00,,,0.00,Wunderground v.1.13,2013-02-06 21:25:00,
2013-02-06 12:30:00,4.1,-0.7,29.72,WNW,303,0.0,44.0,80,0.00,,,0.00,Wunderground v.1.13,2013-02-06 21:30:00,
2013-02-06 12:35:00,4.1,-0.7,29.73,NW,304,0.0,44.0,80,0.00,,,0.00,Wunderground v.1.13,2013-02-06 21:35:00,
2013-02-06 12:40:00,4.1,-0.7,29.73,NW,304,0.0,44.0,80,0.00,,,0.00,Wunderground v.1.13,2013-02-06 21:40:00,
2013-02-06 12:50:00,4.3,-0.5,29.73,NW,304,0.0,44.0,80,0.00,,,0.00,Wunderground v.1.13,2013-02-06 21:50:00,
2013-02-06 12:55:00,3.9,-0.9,29.73,ESE,110,0.0,44.0,80,0.00,,,0.00,Wunderground v.1.13,2013-02-06 21:55:00,
2013-02-06 13:00:00,3.9,-0.9,29.73,ESE,110,0.0,44.0,80,0.00,,,0.00,Wunderground v.1.13,2013-02-06 22:00:00,
2013-02-06 13:10:00,3.7,-1.1,29.73,ESE,110,0.0,44.0,80,0.00,,,0.00,Wunderground v.1.13,2013-02-06 22:10:00,
2013-02-06 13:15:00,3.9,-0.9,29.73,ESE,110,0.0,44.0,80,0.00,,,0.00,Wunderground v.1.13,2013-02-06 22:15:00,
2013-02-06 17:10:00,1.8,-3.2,29.76,SSE,157,0.0,44.0,79,0.00,,,0.00,Wunderground v.1.13,2013-02-07 02:10:00,
2013-02-06 17:15:00,1.7,-3.3,29.76,SSE,157,0.0,44.0,79,0.00,,,0.00,Wunderground v.1.13,2013-02-07 02:15:00,
2013-02-06 17:20:00,1.7,-3.3,29.77,SSE,157,0.0,44.0,79,0.00,,,0.00,Wunderground v.1.13,2013-02-07 02:20:00,
2013-02-06 17:25:00,1.7,-3.3,29.77,SSE,157,0.0,44.0,79,0.00,,,0.00,Wunderground v.1.13,2013-02-07 02:25:00,
2013-02-06 17:35:00,1.7,-3.3,29.77,SSE,157,0.0,44.0,79,0.00,,,0.00,Wunderground v.1.13,2013-02-07 02:35:00,
2013-02-06 17:40:00,1.7,-3.3,29.77,SSE,157,0.0,44.0,79,0.00,,,0.00,Wunderground v.1.13,2013-02-07 02:40:00,
2013-02-06 17:45:00,1.7,-3.3,29.77,SSE,157,0.0,44.0,79,0.00,,,0.00,Wunderground v.1.13,2013-02-07 02:45:00,
2013-02-06 17:55:00,1.8,-3.2,29.77,SSE,157,0.0,44.0,79,0.00,,,0.00,Wunderground v.1.13,2013-02-07 02:55:00,
2013-02-06 18:00:00,1.8,-3.2,29.77,SSE,157,0.0,44.0,79,0.00,,,0.00,Wunderground v.1.13,2013-02-07 03:00:00,
2013-02-06 18:10:00,1.8,-3.2,29.77,SSE,157,0.0,44.0,79,0.00,,,0.00,Wunderground v.1.13,2013-02-07 03:10:00,
2013-02-06 18:20:00,1.8,-3.2,29.78,SSE,157,0.0,44.0,79,0.00,,,0.00,Wunderground v.1.13,2013-02-07 03:20:00,
2013-02-06 18:25:00,1.8,-3.2,29.78,SSE,157,0.0,44.0,79,0.00,,,0.00,Wunderground v.1.13,2013-02-07 03:25:00,
2013-02-06 18:30:00,1.8,-3.2,29.78,SSE,157,0.0,44.0,79,0.00,,,0.00,Wunderground v.1.13,2013-02-07 03:30:00,
2013-02-06 18:35:00,1.8,-3.2,29.79,SSE,157,0.0,44.0,79,0.00,,,0.00,Wunderground v.1.13,2013-02-07 03:35:00,
2013-02-06 18:45:00,1.8,-3.2,29.79,SSE,157,0.0,44.0,79,0.00,,,0.00,Wunderground v.1.13,2013-02-07 03:45:00,
2013-02-06 18:50:00,1.8,-3.2,29.79,SSE,157,0.0,44.0,79,0.00,,,0.00,Wunderground v.1.13,2013-02-07 03:50:00,
2013-02-06 19:00:00,1.8,-3.2,29.79,SSE,157,0.0,44.0,79,0.00,,,0.00,Wunderground v.1.13,2013-02-07 04:00:00,
2013-02-06 19:10:00,1.7,-3.3,29.79,SSE,157,0.0,44.0,79,0.00,,,0.00,Wunderground v.1.13,2013-02-07 04:10:00,
2013-02-06 19:15:00,1.7,-3.3,29.79,SSE,157,0.0,44.0,79,0.00,,,0.00,Wunderground v.1.13,2013-02-07 04:15:00,
2013-02-06 19:20:00,1.7,-3.3,29.79,SSE,157,0.0,44.0,79,0.00,,,0.00,Wunderground v.1.13,2013-02-07 04:20:00,
2013-02-06 19:25:00,1.5,-3.5,29.79,SSE,157,0.0,44.0,79,0.00,,,0.00,Wunderground v.1.13,2013-02-07 04:25:00,
2013-02-06 19:40:00,0.9,-4.4,29.79,SSE,148,0.0,44.0,78,0.00,,,0.00,Wunderground v.1.13,2013-02-07 04:40:00,
2013-02-06 19:50:00,0.7,-4.6,29.79,SSE,148,0.0,44.0,78,0.00,,,0.00,Wunderground v.1.13,2013-02-07 04:50:00,
2013-02-06 19:55:00,0.5,-4.7,29.79,SSE,148,0.0,44.0,78,0.00,,,0.00,Wunderground v.1.13,2013-02-07 04:55:00,
2013-02-06 20:00:00,0.5,-4.7,29.79,SE,142,0.0,44.0,78,0.00,,,0.00,Wunderground v.1.13,2013-02-07 05:00:00,
2013-02-06 20:10:00,0.5,-4.7,29.78,SE,128,0.0,44.0,78,0.00,,,0.00,Wunderground v.1.13,2013-02-07 05:10:00,
2013-02-06 20:15:00,0.5,-4.7,29.78,SSE,157,0.0,44.0,78,0.00,,,0.00,Wunderground v.1.13,2013-02-07 05:15:00,
2013-02-06 20:20:00,0.3,-4.9,29.78,SSE,156,0.0,44.0,78,0.00,,,0.00,Wunderground v.1.13,2013-02-07 05:20:00,
2013-02-06 20:25:00,0.3,-4.9,29.78,SE,138,0.0,44.0,78,0.00,,,0.00,Wunderground v.1.13,2013-02-07 05:25:00,
2013-02-06 20:30:00,0.3,-4.9,29.78,SE,140,0.0,44.0,78,0.00,,,0.00,Wunderground v.1.13,2013-02-07 05:30:00,
2013-02-06 20:40:00,0.1,-5.1,29.78,SE,138,0.0,44.0,78,0.00,,,0.00,Wunderground v.1.13,2013-02-07 05:40:00,
2013-02-06 20:45:00,0.0,-5.2,29.78,SE,144,0.0,44.0,78,0.00,,,0.00,Wunderground v.1.13,2013-02-07 05:45:00,
2013-02-06 20:50:00,0.0,-5.2,29.78,SE,144,0.0,44.0,78,0.00,,,0.00,Wunderground v.1.13,2013-02-07 05:50:00,
2013-02-06 20:55:00,0.0,-5.2,29.78,SE,144,0.0,44.0,78,0.00,,,0.00,Wunderground v.1.13,2013-02-07 05:55:00,
2013-02-06 21:00:00,0.0,-5.2,29.78,SE,144,0.0,44.0,78,0.00,,,0.00,Wunderground v.1.13,2013-02-07 06:00:00,
2013-02-06 21:10:00,0.0,-5.2,29.78,SE,139,0.0,44.0,78,0.00,,,0.00,Wunderground v.1.13,2013-02-07 06:10:00,
2013-02-06 21:15:00,0.0,-5.2,29.78,SE,139,0.0,44.0,78,0.00,,,0.00,Wunderground v.1.13,2013-02-07 06:15:00,
2013-02-06 21:20:00,0.0,-5.2,29.77,SE,139,0.0,44.0,78,0.00,,,0.00,Wunderground v.1.13,2013-02-07 06:20:00,
2013-02-06 21:25:00,0.0,-5.2,29.77,SE,139,0.0,44.0,78,0.00,,,0.00,Wunderground v.1.13,2013-02-07 06:25:00,
2013-02-06 21:35:00,0.0,-5.2,29.77,SE,139,0.0,44.0,78,0.00,,,0.00,Wunderground v.1.13,2013-02-07 06:35:00,
2013-02-06 21:40:00,-0.2,-5.4,29.77,SE,139,0.0,44.0,78,0.00,,,0.00,Wunderground v.1.13,2013-02-07 06:40:00,
2013-02-06 21:50:00,-0.2,-5.4,29.77,SE,140,0.0,44.0,78,0.00,,,0.00,Wunderground v.1.13,2013-02-07 06:50:00,